Tracking 17842 objects as of 31-August-2016
HD Live streaming from Space Station
objects crossing your sky now

DEMETER

Track DEMETER now!
10-day predictions
DEMETER is classified as:


NORAD ID: 28368
Int'l Code: 2004-025C
Perigee: 653.5 km
Apogee: 656.9 km
Inclination: 97.7 °
Period: 97.7 minutes
Semi major axis: 7026 km
RCS: 0.9257 m2 (medium)
Launch date: June 29, 2004
Source: France (FR)
Launch site: TYURATAM MISSILE AND SPACE COMPLEX (TTMTR)

Study of ionosperic perturbations in relation with seismic activity; global study of the Earth electromagnetic environment.
Your satellite tracking list
Your tracking list is empty





NASA's NSSDC Master Catalog

Two Line Element Set (TLE):
1 28368U 04025C   16243.89244257  .00000103  00000-0  22771-4 0  9992
2 28368  97.7138 250.9025 0002455 101.7292 258.4193 14.74079086652859
Source of the keplerian elements: AFSPC

N2YO: 391